{"data":{"norad_id":43070,"epoch":"2026-05-25T01:23:47.209056Z","epoch_age_seconds":80307,"freshness":"FRESH","line1":"1 43070U 17083A   26145.05818529 -.00000022  00000+0 -14911-4 0  9994","line2":"2 43070  86.3950 331.6892 0002048  89.1165 271.0266 14.34217266440832","mean_motion":14.34217266,"eccentricity":0.0002048,"inclination_deg":86.395,"raan_deg":331.6892,"arg_perigee_deg":89.1165,"mean_anomaly_deg":271.0266,"bstar":-1.4911e-5,"rev_number":44083,"period_min":100.40319790712,"perigee_km":776.20325522806,"apogee_km":779.1342732691,"semimajor_km":7155.8057642486,"source":"CELESTRAK","updated_at":"2026-05-25T13:38:14.804596Z"}}